Location: Alexandria
(38.8050°N, 77.0470°W)
Time: 16:47:43

ISS - Pass Details

Date: 15 March 2018
Orbit: 403 x 406 km, 51.6° (Epoch: 22 March)

Event Time Altitude Azimuth Distance (km) Brightness Sun altitude
Exits shadow 05:40:21 11° 345° (NNW) 1,399 -1.1 -20.0°
Maximum altitude 05:42:09 16° 21° (NNE) 1,173 -1.1 -19.7°
Drops below altitude 10° 05:44:13 10° 60° (ENE) 1,462 0.1 -19.3°
Sets 05:46:55 0° 84° (E) 2,319 1.7 -18.8°
